Retour au catalogue

CZ-6A DEB

ActifSSO
NORAD 54505·DEBRIS·🇨🇳 China

Lancé Nov 11, 2022 depuis Taiyuan Satellite Launch Center

Loading…

Prochains Passages (prochaines 24 heures)

TLE

FraisSource: Space-Track

Époque: Sep 14, 2026, 04:12 UTC

1 54505U 22151JH  26257.17508936  .00002524  00000-0  78793-3 0  9991
2 54505  98.9180 334.0765 0070155 181.3112 178.7902 14.40341597200597

Suivez CZ-6A DEB en temps réel avec AllMySat

Download on the App Store